Simultaneous Nadir Overpasses (SNOs) Predictions

Prediction of SNOs between AQUA and NPP Satellite Orbit:

Table of predicted SNOs for the next 14.0 days since TLE Epoch: 7/8/2023
Index Date (AQUA) Time (AQUA) Lat,Lon (AQUA) SZA (AQUA ) Date (NPP) Time (NPP) Lat,Lon (NPP) SZA (NPP ) Distance(km) Time Diff (sec)
1 07/09/2023 09:57:33 -80.57, 119.06 111.57 07/09/2023 09:56:39 -80.58, 119.07 111.54 0.15 54
2 07/09/2023 10:46:54 80.66, -72.31 68.27 07/09/2023 10:47:20 80.66, -72.35 68.26 0.72 26
3 07/12/2023 00:32:24 -80.64, -98.87 111.37 07/12/2023 00:32:01 -80.64, -98.77 111.37 1.69 23
4 07/12/2023 01:21:45 80.72, 69.74 68.48 07/12/2023 01:22:42 80.72, 69.82 68.43 1.34 57
5 07/14/2023 14:17:55 80.57,-126.04 69.16 07/14/2023 14:16:45 80.57,-126.07 69.21 0.42 70
6 07/14/2023 15:07:16 -80.68, 42.94 111.07 07/14/2023 15:07:25 -80.69, 43.02 111.09 1.39 9
7 07/17/2023 04:52:46 80.61, 15.78 69.49 07/17/2023 04:52:09 80.61, 15.65 69.53 2.35 37
8 07/17/2023 05:42:08 -80.70,-175.53 110.69 07/17/2023 05:42:50 -80.70,-175.58 110.71 0.80 42
9 07/19/2023 19:27:35 80.69, 158.00 69.79 07/19/2023 19:27:31 80.69, 158.02 69.79 0.44 4



Historial Predications of SNOs between AQUA and NPP
